COSMOS 2442 (GLONASS)

Satellite information

Favourite Embed

Satellite Type and Status

PAYLOADIN ORBIT

Key statistics

Satellite COSMOS 2442 (GLONASS) at a glance.

Uptime

6072

Days in orbit

Revolutions

≈ 2.1

Per day

Orbit

MEO

Medium Earth Orbit

Inclination

65.7

Latest

Satellite identification and parameters

Extended collection of information and parameters for COSMOS 2442 (GLONASS).

Object identification

Identified? True

Debris? False

Object name: COSMOS 2442 (GLONASS)

International designator: 2008-046A

Object number (NORAD): 33378

Object ID (CCSDS): 33378

Country: COMMONWEALTH OF INDEPENDENT STATES (CIS)

Current information (Y/N): Y

RCS size: LARGE

Orbital parameters

Period: 675.713 minutes

Inclination: 65.6853 deg

SMA: 25507.527 km

Apoapsis: 19175.981 km

Periapsis: 19082.802 km

RAAN: 328.4328 deg

Eccentricy: 0.0018265

Argument of periapsis: 307.2965 deg

Mean anomaly: 36.4361 deg

Mean motion: 2.13108236 rev/day

Mean motion (dot): -0.00000046 rev/day2

B* drag term: 0.0 1/REarth

Two-line elements (TLE)

Creation date: May 10, 2025, 5:27 p.m.

Reference frame: TEME

Reference center: EARTH

Epoch: May 10, 2025, 1:49 p.m. UTC

TLE line 0: 0 COSMOS 2442 (GLONASS)

TLE line 1: 1 33378U 08046A 25130.57569493 -.00000046 00000-0 00000-0 0 9992

TLE line 2: 2 33378 65.6853 328.4328 0018265 307.2965 36.4361 2.13108236129363

Live tracking on map

Real-time ground track for satellite COSMOS 2442 (GLONASS).

In-orbit conjunctions

There are no conjunctions computed for COSMOS 2442 (GLONASS), at the moment. Check back to stay up to date, as we update our databases every day.

Go to all conjunctions

Associated space launch

GLONASS navigation satellites

COSMOS 2442 (GLONASS) was lifted into orbit during the mission ‘Proton-M | Uragan-M 15 to 17’, on board a Proton-M space rocket.

The launch took place on Sept. 25, 2008, 8:49 a.m. from 81/23 (81L).

For more information about the launch, click the button.

Launch to space Proton-M | Uragan-M 15 to 17
Proton-M | Uragan-M 15 to 17

Agency: N/A

Status: Launch Successful

Launch date: Sept. 25, 2008, 8:49 a.m. UTC

Rocket: Proton-M

Launch pad: 81/23 (81L)

Location: Baikonur Cosmodrome, Republic of Kazakhstan

...

Latest news about this satellite

There are no fresh news available about this satellite. Check back as we update our databases every day.


Newsletter sign-up

Weekly statistics, charts and insights to help you stay on top of the space industry.